Lid_Strength_Index
3 3 3 3 3 3 2 2 2 2 2 2 2 2 2 2 3 3 7 3 2 -2 -1 2 2 2 2 4 3 3 9 11 10 9 9 6 7 5 4 5 5 4 4 3 3
3 3 3 4 4 4 3 2 2 2 2 2 2 2 2 3 4 6 -0 -3 -3 -3 3 4 4 3 5 5 5 7 10 10 7 6 9 6 6 6 5 6 6 5 3 3 3
3 4 4 4 4 4 4 3 3 2 3 3 2 2 3 3 5 5 -3 -3 -2 -2 3 4 3 4 6 6 6 7 10 8 6 6 6 6 6 5 6 7 5 6 5 3 3
4 4 4 4 4 4 4 4 2 2 3 3 3 2 2 5 9 5 -3 -3 -3 -0 3 4 4 5 7 8 5 8 6 6 7 6 7 6 5 6 6 6 4 4 3 3 3
4 4 4 4 4 4 4 4 3 3 3 3 3 2 4 7 6 1 -3 -2 0 3 4 5 6 6 7 6 6 7 6 6 5 6 6 5 6 6 6 4 3 3 3 4 3
4 4 4 5 5 4 5 5 5 4 3 3 2 2 4 8 2 1 3 2 2 3 3 4 7 5 5 6 7 6 6 6 6 6 5 7 7 6 5 4 4 4 4 4 3
3 3 4 5 5 4 5 5 5 4 3 2 1 3 5 6 1 2 3 3 2 2 4 4 5 6 6 7 5 5 8 7 6 6 7 6 8 7 5 4 5 4 4 4 4
3 3 3 4 5 5 4 5 5 4 2 1 1 4 6 2 2 2 2 2 2 3 4 4 4 6 6 5 5 8 8 12 7 6 6 7 12 7 5 5 6 5 4 4 4
3 4 4 4 4 4 4 5 5 3 2 1 4 6 6 1 3 3 2 3 2 3 4 2 5 7 6 8 9 9 12 12 9 6 7 8 11 7 6 6 6 5 5 4 4
3 4 4 4 4 4 5 5 3 3 3 3 3 6 5 4 3 3 2 2 3 3 5 6 7 8 7 10 13 11 11 11 10 8 7 9 10 8 7 6 6 6 5 5 4
3 4 4 4 4 4 6 6 7 7 7 7 6 5 3 2 1 3 3 3 4 5 8 7 9 10 9 8 8 8 10 10 8 7 9 10 9 8 7 6 7 7 6 5 4
3 4 4 4 4 5 6 7 8 7 9 6 5 4 3 3 4 3 3 5 5 7 7 8 10 8 7 7 7 8 9 10 8 8 10 10 10 8 8 7 7 7 6 5 5
4 4 4 4 5 4 5 5 6 5 9 6 5 5 5 5 5 5 4 5 6 7 8 9 8 5 7 8 8 9 9 9 10 9 8 10 11 10 8 7 6 6 5 5 5
4 4 4 5 5 5 5 4 5 4 10 7 7 6 5 5 6 3 3 4 6 8 8 8 7 7 7 8 8 11 7 8 9 11 15 10 16 10 10 9 8 7 6 5 5
4 4 4 5 6 6 4 4 5 4 16 6 7 5 5 6 5 4 2 4 7 7 7 9 8 8 9 8 7 8 7 8 9 12 12 12 15 12 10 11 10 8 6 5 4
4 4 5 5 5 4 2 4 5 11 15 9 8 8 8 6 6 5 5 4 4 6 7 7 6 7 8 7 7 5 8 9 10 12 16 12 13 14 13 11 10 7 6 5 5
4 5 6 5 7 5 3 5 11 14 6 10 10 9 9 8 7 6 7 7 9 10 10 8 7 7 6 8 7 8 11 15 16 17 18 11 13 13 10 8 7 7 6 5 5
5 6 4 3 3 3 4 8 14 9 8 7 8 8 10 8 7 6 8 9 7 7 10 11 11 8 6 7 9 9 11 14 18 18 16 12 15 11 8 7 7 6 6 5 5
6 4 4 2 2 2 6 12 11 8 6 7 7 9 10 9 8 7 8 8 7 7 10 11 10 7 6 6 7 9 12 9 13 14 17 15 12 9 9 8 7 7 6 6 5
7 5 3 2 1 3 7 10 8 5 6 6 9 8 10 9 9 9 8 6 7 6 7 8 11 7 6 6 6 8 8 12 13 18 19 16 14 14 11 9 8 7 7 6 5
5 5 2 1 1 5 10 8 6 4 4 6 8 8 8 8 9 9 8 6 5 6 7 8 10 10 8 9 10 10 10 12 12 14 18 18 16 9 10 9 8 7 6 6 6
5 7 1 1 7 7 8 7 7 5 4 6 6 7 8 8 8 8 8 7 4 5 7 7 9 12 10 7 6 8 10 12 15 15 14 14 16 8 9 8 7 7 6 6 5
7 5 2 2 9 8 6 6 5 5 5 6 6 6 6 8 9 7 7 5 4 5 8 8 11 14 13 10 8 9 9 9 11 11 14 16 15 8 8 7 7 7 6 5 5
7 8 5 4 5 7 7 7 7 4 5 5 6 6 7 8 7 9 7 5 4 5 4 7 11 13 14 12 10 11 9 8 10 13 13 13 12 10 9 8 7 6 6 6 5
5 7 5 9 7 7 6 7 7 7 5 5 7 6 7 10 9 10 8 7 6 6 6 8 13 10 9 8 9 9 9 9 10 10 12 12 11 10 8 8 7 6 6 5 5
7 6 5 7 6 7 8 7 7 7 6 7 7 6 6 9 9 10 9 9 10 8 8 8 12 11 11 9 9 10 9 8 9 10 9 9 11 8 7 6 6 6 6 6 6
2 2 5 7 7 7 7 7 6 6 5 5 6 7 7 7 6 6 6 7 7 8 9 10 11 12 14 11 10 13 10 9 8 8 9 12 10 7 7 7 7 6 6 6 5